User: anonymous   Login
Location: Misciano
(43.5000°N, 11.9500°E)
Time: 14:02:33
(UTC+00:00)
Language:

SL-16 R/B - Orbit

View from above orbital plane
View from above orbital plane
View from above satellite
View from above satellite

Ground track
Ground track

The orbit data is extracted from the following two-line orbital elements,

1 31793U 07029B   20294.60251198 -.00000176 +00000-0 -66872-4 0  9999
2 31793 070.9777 343.4700 0002234 275.4206 197.7688 14.14439255687421
Epoch (UTC): 20 October 2020 14:27:37
Eccentricity: 0.0002234
inclination: 70.9777°
perigee height: 842 km
apogee height: 846 km
right ascension of ascending node: 343.4700°
argument of perigee: 275.4206°
revolutions per day: 14.14439255
mean anomaly at epoch: 197.7688°
orbit number at epoch: 68742

The dashed part of the orbit path shows where the satellite is in the earth's shadow,  

DLR